Avalon, CA

2:18 AM PDT on April 24, 2018 (GMT -0700)
Catalina

Weather History for KAVX - November, 2013

Change the Weather History Date:

Tuesday, November 12, 2013

  Actual Average Record
Temperature  
Mean Temperature 74 °F -  
Max Temperature 78 °F 61 °F 78 °F (2013)
Min Temperature 69 °F 51 °F 44 °F (2000)
Cooling Degree Days 8    
Growing Degree Days 24 (Base 50)    
Moisture  
Dew Point 27 °F    
Average Humidity 18    
Maximum Humidity 23    
Minimum Humidity 14    
Precipitation  
Precipitation 0.00 in - - ()
Sea Level Pressure  
Sea Level Pressure 30.08 in    
Wind  
Wind Speed 7 mph (NW)    
Max Wind Speed 14 mph    
Max Gust Speed -    
Visibility 10 miles    
Events      
Averages and records for this station are not official NWS values.
T = Trace of Precipitation, MM = Missing Value Source: NWS Daily Summary

Daily Weather History Graph

Daily Weather History Graph

Search for Another Location

Airport or City:

Astronomy

Nov. 12, 2013 Rise Set
Actual Time 6:22 AM PST 4:52 PM PST
Civil Twilight 5:56 AM PST 5:19 PM PST
Nautical Twilight 5:26 AM PST 5:48 PM PST
Astronomical Twilight 4:57 AM PST 6:18 PM PST
Moon 1:57 PM PST (11/12) 1:31 AM PST (11/12)
Length of Visible Light 11h 22m
Length of Day
10h 30m
Waxing Gibbous, 77% of the Moon is Illuminated
Nov 12
Waxing Gibbous
Nov 17
Full
Nov 25
Last Quarter
Dec 2
New
Dec 9
First Quarter

Hourly Weather History & Observations

Time (PST) Temp. Dew Point Humidity Pressure Visibility Wind Dir Wind Speed Gust Speed Precip Events Conditions
12:51 AM 70.0 °F 19.9 °F 15% 30.08 in 10.0 mi NW 6.9 mph - N/A   Clear
1:51 AM 71.1 °F 27.0 °F 19% 30.08 in 10.0 mi NW 6.9 mph - N/A   Clear
2:51 AM 70.0 °F 28.9 °F 22% 30.08 in 10.0 mi WNW 6.9 mph - N/A   Clear
3:51 AM 71.1 °F 28.0 °F 20% 30.08 in 10.0 mi NW 4.6 mph - N/A   Clear
4:51 AM 72.0 °F 26.1 °F 18% 30.08 in 10.0 mi WNW 6.9 mph - N/A   Clear
5:51 AM 70.0 °F 28.0 °F 21% 30.09 in 10.0 mi NNW 6.9 mph - N/A   Clear
6:51 AM 69.1 °F 26.1 °F 20% 30.12 in 10.0 mi West 9.2 mph - N/A   Clear
7:51 AM 70.0 °F 28.0 °F 21% 30.15 in 10.0 mi WSW 4.6 mph - N/A   Clear
8:51 AM 72.0 °F 28.9 °F 20% 30.15 in 10.0 mi North 9.2 mph - N/A   Clear
9:51 AM 71.1 °F 30.0 °F 22% 30.15 in 10.0 mi North 6.9 mph - N/A   Clear
10:51 AM 73.9 °F 28.0 °F 18% 30.12 in 10.0 mi Calm Calm - N/A   Clear
11:51 AM 75.9 °F 23.0 °F 14% 30.10 in 10.0 mi West 9.2 mph - N/A   Clear
12:51 PM 78.1 °F 25.0 °F 14% 30.07 in 10.0 mi Calm Calm - N/A   Clear
1:51 PM 78.1 °F 28.9 °F 17% 30.06 in 10.0 mi WNW 4.6 mph - N/A   Clear
2:51 PM 78.1 °F 28.9 °F 17% 30.06 in 10.0 mi WNW 5.8 mph - N/A   Clear
3:51 PM 75.9 °F 26.1 °F 16% 30.05 in 10.0 mi NNW 6.9 mph - N/A   Clear
4:51 PM 75.0 °F 23.0 °F 14% 30.04 in 10.0 mi NNW 6.9 mph - N/A   Clear
5:51 PM 70.0 °F 30.0 °F 23% 30.07 in 10.0 mi NW 12.7 mph - N/A   Clear
6:51 PM 71.1 °F 28.9 °F 21% 30.07 in 10.0 mi NW 11.5 mph - N/A   Clear
7:51 PM 72.0 °F 27.0 °F 19% 30.07 in 10.0 mi NW 13.8 mph - N/A   Clear
8:51 PM 72.0 °F 28.9 °F 20% 30.07 in 10.0 mi NW 13.8 mph - N/A   Clear
9:51 PM 72.0 °F 30.0 °F 21% 30.07 in 10.0 mi NW 9.2 mph - N/A   Clear
10:51 PM 75.0 °F 21.9 °F 14% 30.05 in 10.0 mi NW 6.9 mph - N/A   Clear
11:51 PM 75.0 °F 24.1 °F 15% 30.04 in 10.0 mi North 8.1 mph - N/A   Clear